Marshall, TX

7:51 AM CST on December 15, 2019 (GMT -0600)
Harrison County

Weather History for KASL - October, 2019

Change the Weather History Date:

Wednesday, October 23, 2019

  Actual Average (WUND) Record (WUND)
Temperature  
Mean Temperature 58 °F -  
Max Temperature 75 °F - - (-1)
Min Temperature 41 °F - - (-1)
Degree Days  
Heating Degree Days 7    
Growing Degree Days 8 (Base 50)    
Moisture  
Dew Point 42 °F    
Average Humidity 65    
Maximum Humidity 95    
Minimum Humidity 27    
Precipitation  
Precipitation 0.00 in - - ()
Sea Level Pressure  
Sea Level Pressure 30.13 in    
Wind  
Wind Speed 2 mph (South)    
Max Wind Speed 14 mph    
Max Gust Speed 20 mph    
Visibility 10 miles    
Events      
Averages and records for this station are not official NWS values.
T = Trace of Precipitation, MM = Missing Value Source: NWS Daily Summary

Daily Weather History Graph

Daily Weather History Graph

Search for Another Location

Airport or City:

Astronomy

Oct. 23, 2019 Rise Set
Actual Time 7:27 AM CDT 6:35 PM CDT
Civil Twilight 7:02 AM CDT 7:00 PM CDT
Nautical Twilight 6:33 AM CDT 7:29 PM CDT
Astronomical Twilight 6:04 AM CDT 7:57 PM CDT
Moon 2:11 AM CDT (10/23) 4:04 PM CDT (10/23)
Length of Visible Light 11h 58m
Length of Day
11h 08m
Waning Crescent, 26% of the Moon is Illuminated
Oct 23
Waning Crescent
Oct 27
New
Nov 4
First Quarter
Nov 12
Full
Nov 19
Last Quarter

Hourly Weather History & Observations

Time (CDT) Temp. Dew Point Humidity Pressure Visibility Wind Dir Wind Speed Gust Speed Precip Events Conditions
12:15 AM 45.0 °F 43.3 °F 94% 30.17 in 10.0 mi Calm Calm - N/A   Clear
12:55 AM 45.0 °F 43.3 °F 94% 30.17 in 10.0 mi Calm Calm - N/A   Clear
1:15 AM 45.0 °F 43.3 °F 94% 30.17 in 10.0 mi Calm Calm - N/A   Clear
1:35 AM 45.0 °F 43.3 °F 94% 30.16 in 10.0 mi Calm Calm - N/A   Clear
1:55 AM 45.0 °F 43.3 °F 94% 30.17 in 10.0 mi Calm Calm - N/A   Clear
2:15 AM 45.0 °F 43.3 °F 94% 30.16 in 10.0 mi Calm Calm - N/A   Clear
2:35 AM 42.4 °F 41.0 °F 95% 30.16 in 10.0 mi Calm Calm - N/A   Clear
2:55 AM 42.4 °F 41.0 °F 95% 30.16 in 10.0 mi Calm Calm - N/A   Clear
3:15 AM 42.4 °F 41.0 °F 95% 30.16 in 10.0 mi Calm Calm - N/A   Clear
3:35 AM 42.4 °F 41.0 °F 95% 30.16 in 10.0 mi Calm Calm - N/A   Clear
3:55 AM 44.2 °F 42.8 °F 95% 30.15 in 10.0 mi Calm Calm - N/A   Clear
4:15 AM 43.2 °F 41.7 °F 95% 30.15 in 10.0 mi Calm Calm - N/A   Clear
4:35 AM 42.4 °F 41.0 °F 95% 30.15 in 10.0 mi Calm Calm - N/A   Clear
4:55 AM 42.4 °F 41.0 °F 95% 30.15 in 10.0 mi Calm Calm - N/A   Clear
5:15 AM 42.4 °F 41.0 °F 95% 30.15 in 10.0 mi Calm Calm - N/A   Clear
5:35 AM 41.9 °F 40.5 °F 95% 30.15 in 10.0 mi Calm Calm - N/A   Clear
5:55 AM 42.3 °F 40.8 °F 95% 30.14 in 10.0 mi Calm Calm - N/A   Clear
6:15 AM 42.4 °F 41.0 °F 95% 30.15 in 10.0 mi Calm Calm - N/A   Clear
6:35 AM 42.4 °F 41.0 °F 95% 30.15 in 10.0 mi Calm Calm - N/A   Clear
6:55 AM 42.4 °F 41.0 °F 95% 30.15 in 10.0 mi Calm Calm - N/A   Clear
7:15 AM 42.4 °F 41.0 °F 95% 30.15 in 10.0 mi Calm Calm - N/A   Clear
7:35 AM 42.4 °F 41.0 °F 95% 30.16 in 10.0 mi Calm Calm - N/A   Clear
7:55 AM 42.4 °F 41.0 °F 95% 30.15 in 10.0 mi Calm Calm - N/A   Clear
8:15 AM 45.0 °F 43.7 °F 95% 30.16 in 10.0 mi Calm Calm - N/A   Clear
8:35 AM 45.0 °F 43.3 °F 94% 30.16 in 10.0 mi Calm Calm - N/A   Clear
8:55 AM 48.6 °F 46.0 °F 91% 30.17 in 10.0 mi South 4.6 mph - N/A   Clear
9:15 AM 52.5 °F 45.5 °F 77% 30.18 in 10.0 mi South 4.6 mph - N/A   Clear
9:55 AM 57.6 °F 46.9 °F 68% 30.19 in 10.0 mi South 6.9 mph - N/A   Clear
10:15 AM 62.1 °F 47.7 °F 59% 30.19 in 10.0 mi South 6.9 mph - N/A   Clear
10:35 AM 64.9 °F 47.3 °F 53% 30.19 in 10.0 mi South 4.6 mph - N/A   Clear
10:55 AM 64.9 °F 44.6 °F 48% 30.18 in 10.0 mi SSE 4.6 mph - N/A   Clear
11:15 AM 67.5 °F 44.1 °F 43% 30.18 in 10.0 mi South 5.8 mph - N/A   Clear
11:35 AM 70.0 °F 43.7 °F 39% 30.18 in 10.0 mi South 5.8 mph - N/A   Clear
11:55 AM 70.0 °F 41.2 °F 35% 30.18 in 10.0 mi South 8.1 mph - N/A   Clear
12:15 PM 70.7 °F 40.1 °F 33% 30.17 in 10.0 mi South 8.1 mph - N/A   Clear
12:35 PM 72.1 °F 39.2 °F 30% 30.16 in 10.0 mi South 11.5 mph 16.1 mph N/A   Clear
12:55 PM 72.5 °F 39.6 °F 30% 30.15 in 10.0 mi SSW 13.8 mph - N/A   Clear
1:15 PM 72.5 °F 39.0 °F 30% 30.14 in 10.0 mi South 8.1 mph 19.6 mph N/A   Clear
1:35 PM 72.5 °F 39.2 °F 30% 30.13 in 10.0 mi South 11.5 mph 16.1 mph N/A   Clear
1:55 PM 72.5 °F 39.2 °F 30% 30.11 in 10.0 mi South 12.7 mph 16.1 mph N/A   Clear
2:15 PM 75.0 °F 40.3 °F 29% 30.11 in 10.0 mi South 8.1 mph - N/A   Clear
2:35 PM 75.2 °F 39.4 °F 27% 30.09 in 10.0 mi South 10.4 mph 18.4 mph N/A   Clear
2:55 PM 75.2 °F 39.6 °F 28% 30.08 in 10.0 mi South 8.1 mph - N/A   Clear
3:15 PM 75.2 °F 39.4 °F 27% 30.08 in 10.0 mi South 10.4 mph - N/A   Clear
3:35 PM 75.2 °F 40.3 °F 28% 30.07 in 10.0 mi SSE 9.2 mph - N/A   Clear
3:55 PM 75.2 °F 39.7 °F 28% 30.06 in 10.0 mi SSE 8.1 mph - N/A   Clear
4:15 PM 75.2 °F 39.0 °F 27% 30.06 in 10.0 mi South 9.2 mph - N/A   Clear
4:35 PM 75.0 °F 39.7 °F 28% 30.06 in 10.0 mi SSE 8.1 mph - N/A   Clear
4:55 PM 72.5 °F 36.7 °F 27% 30.06 in 10.0 mi SSE 6.9 mph 16.1 mph N/A   Clear
5:15 PM 72.5 °F 37.8 °F 28% 30.05 in 10.0 mi South 9.2 mph - N/A   Clear
5:35 PM 72.5 °F 39.2 °F 30% 30.05 in 10.0 mi SSE 4.6 mph - N/A   Clear
5:55 PM 70.0 °F 39.9 °F 33% 30.05 in 10.0 mi SSE 5.8 mph - N/A   Clear
6:15 PM 70.0 °F 40.3 °F 34% 30.05 in 10.0 mi SSE 4.6 mph - N/A   Clear
6:35 PM 66.4 °F 40.6 °F 39% 30.06 in 10.0 mi SE 3.5 mph - N/A   Clear
6:55 PM 64.9 °F 41.4 °F 42% 30.06 in 10.0 mi SSE 4.6 mph - N/A   Clear
7:15 PM 64.9 °F 41.9 °F 43% 30.06 in 10.0 mi Calm Calm - N/A   Clear
7:35 PM 61.9 °F 43.3 °F 51% 30.07 in 10.0 mi South 3.5 mph - N/A   Clear
7:55 PM 57.6 °F 44.1 °F 61% 30.08 in 10.0 mi SSE 3.5 mph - N/A   Clear
8:15 PM 59.9 °F 42.6 °F 53% 30.09 in 10.0 mi Calm Calm - N/A   Clear
8:35 PM 58.3 °F 42.6 °F 56% 30.09 in 10.0 mi Calm Calm - N/A   Clear
8:55 PM 57.4 °F 42.6 °F 58% 30.09 in 10.0 mi SSE 3.5 mph - N/A   Clear
9:15 PM 57.4 °F 42.6 °F 58% 30.10 in 10.0 mi SSE 3.5 mph - N/A   Clear
9:35 PM 54.3 °F 46.0 °F 74% 30.11 in 10.0 mi Calm Calm - N/A   Clear
10:15 PM 52.7 °F 46.9 °F 81% 30.11 in 10.0 mi Calm Calm - N/A   Clear
10:35 PM 50.0 °F 46.4 °F 87% 30.11 in 10.0 mi Calm Calm - N/A   Clear
10:55 PM 51.3 °F 47.3 °F 86% 30.11 in 10.0 mi Calm Calm - N/A   Clear
11:15 PM 52.5 °F 47.3 °F 82% 30.11 in 10.0 mi Calm Calm - N/A   Clear
11:35 PM 52.7 °F 46.6 °F 80% 30.11 in 10.0 mi Calm Calm - N/A   Clear
11:55 PM 54.7 °F 46.9 °F 75% 30.11 in 10.0 mi Calm Calm - N/A   Clear